Time,TemperatureF,DewpointF,PressureIn,WindDirection,WindDirectionDegrees,WindSpeedMPH,WindSpeedGustMPH,Humidity,HourlyPrecipIn,Conditions,Clouds,dailyrainin,SoftwareType,DateUTC
2013-02-26 00:00:00,40.3,33.9,29.55,WNW,293,13.4,21.5,78,0.00,,,0.00,WUHU216HW,2013-02-26 06:00:00,
2013-02-26 00:05:00,40.3,33.9,29.55,NW,315,14.1,21.5,78,0.00,,,0.00,WUHU216HW,2013-02-26 06:05:00,
2013-02-26 00:10:00,40.3,33.7,29.55,WNW,293,23.0,23.0,77,0.00,,,0.00,WUHU216HW,2013-02-26 06:10:00,
2013-02-26 00:15:00,40.5,33.9,29.56,WNW,293,15.4,23.0,77,0.00,,,0.00,WUHU216HW,2013-02-26 06:15:00,
2013-02-26 00:20:00,40.5,33.9,29.56,WNW,293,15.2,21.3,77,0.00,,,0.00,WUHU216HW,2013-02-26 06:20:00,
2013-02-26 00:25:00,40.5,33.9,29.56,NW,315,14.8,19.5,77,0.00,,,0.00,WUHU216HW,2013-02-26 06:25:00,
2013-02-26 00:30:00,40.5,33.5,29.56,WNW,293,16.8,23.9,76,0.00,,,0.00,WUHU216HW,2013-02-26 06:30:00,
2013-02-26 00:35:00,40.7,33.7,29.57,West,270,16.8,23.9,76,0.00,,,0.00,WUHU216HW,2013-02-26 06:35:00,
2013-02-26 00:40:00,40.7,33.7,29.57,WNW,293,15.0,25.3,76,0.00,,,0.00,WUHU216HW,2013-02-26 06:40:00,
2013-02-26 00:45:00,40.7,33.3,29.57,WNW,293,14.1,25.3,75,0.00,,,0.00,WUHU216HW,2013-02-26 06:45:00,
2013-02-26 00:50:00,40.7,33.3,29.57,West,270,11.4,23.7,75,0.00,,,0.00,WUHU216HW,2013-02-26 06:50:00,
2013-02-26 00:55:00,40.5,33.1,29.57,WNW,293,15.7,23.0,75,0.00,,,0.00,WUHU216HW,2013-02-26 06:55:00,
2013-02-26 01:00:00,40.7,33.3,29.58,WNW,293,17.2,23.0,75,0.00,,,0.00,WUHU216HW,2013-02-26 07:00:00,
2013-02-26 01:05:00,40.5,33.1,29.58,WNW,293,13.2,23.9,75,0.00,,,0.00,WUHU216HW,2013-02-26 07:05:00,
2013-02-26 01:10:00,40.5,32.9,29.58,West,270,22.1,23.9,74,0.00,,,0.00,WUHU216HW,2013-02-26 07:10:00,
2013-02-26 01:15:00,40.7,33.0,29.58,West,270,18.6,25.9,74,0.00,,,0.00,WUHU216HW,2013-02-26 07:15:00,
2013-02-26 01:20:00,40.7,33.0,29.58,West,270,15.0,25.9,74,0.00,,,0.00,WUHU216HW,2013-02-26 07:20:00,
2013-02-26 01:25:00,40.7,33.0,29.58,NW,315,8.5,24.6,74,0.00,,,0.00,WUHU216HW,2013-02-26 07:25:00,
2013-02-26 01:30:00,40.7,33.0,29.58,WNW,293,17.7,20.8,74,0.00,,,0.00,WUHU216HW,2013-02-26 07:30:00,
2013-02-26 01:35:00,40.7,32.7,29.58,WNW,293,19.9,21.9,73,0.00,,,0.00,WUHU216HW,2013-02-26 07:35:00,
2013-02-26 01:40:00,40.7,32.7,29.59,WNW,293,15.4,21.9,73,0.00,,,0.00,WUHU216HW,2013-02-26 07:40:00,
2013-02-26 01:45:00,40.7,33.0,29.59,WNW,293,14.3,20.1,74,0.00,,,0.00,WUHU216HW,2013-02-26 07:45:00,
2013-02-26 01:50:00,40.7,32.7,29.59,West,270,13.2,20.8,73,0.00,,,0.00,WUHU216HW,2013-02-26 07:50:00,
2013-02-26 01:55:00,40.7,32.3,29.59,WNW,293,16.3,24.4,72,0.00,,,0.00,WUHU216HW,2013-02-26 07:55:00,
2013-02-26 02:00:00,40.7,32.3,29.58,WNW,293,23.7,24.4,72,0.00,,,0.00,WUHU216HW,2013-02-26 08:00:00,
2013-02-26 02:05:00,40.7,32.3,29.59,WNW,293,12.1,23.9,72,0.00,,,0.00,WUHU216HW,2013-02-26 08:05:00,
2013-02-26 02:10:00,40.7,32.1,29.58,WNW,293,11.9,23.7,71,0.00,,,0.00,WUHU216HW,2013-02-26 08:10:00,
2013-02-26 02:15:00,40.7,32.3,29.59,WNW,293,14.5,22.8,72,0.00,,,0.00,WUHU216HW,2013-02-26 08:15:00,
2013-02-26 02:20:00,40.7,32.3,29.59,West,270,12.1,20.4,72,0.00,,,0.00,WUHU216HW,2013-02-26 08:20:00,
2013-02-26 02:25:00,40.7,32.3,29.59,WNW,293,13.9,19.7,72,0.00,,,0.00,WUHU216HW,2013-02-26 08:25:00,
2013-02-26 02:30:00,40.7,32.1,29.59,WNW,293,18.6,24.8,71,0.00,,,0.00,WUHU216HW,2013-02-26 08:30:00,
2013-02-26 02:35:00,40.7,32.1,29.59,WNW,293,21.9,24.8,71,0.00,,,0.00,WUHU216HW,2013-02-26 08:35:00,
2013-02-26 02:40:00,40.7,32.1,29.59,WNW,293,24.2,24.2,71,0.00,,,0.00,WUHU216HW,2013-02-26 08:40:00,
2013-02-26 02:45:00,40.7,32.1,29.60,WNW,293,15.2,24.2,71,0.00,,,0.00,WUHU216HW,2013-02-26 08:45:00,
2013-02-26 02:50:00,40.7,32.1,29.60,WNW,293,18.6,24.6,71,0.00,,,0.00,WUHU216HW,2013-02-26 08:50:00,
2013-02-26 02:55:00,40.7,32.1,29.60,WNW,293,19.0,26.8,71,0.00,,,0.00,WUHU216HW,2013-02-26 08:55:00,
2013-02-26 03:00:00,40.7,32.3,29.60,WNW,293,10.3,26.8,72,0.00,,,0.00,WUHU216HW,2013-02-26 09:00:00,
2013-02-26 03:05:00,40.7,32.3,29.60,NNW,338,11.9,19.0,72,0.00,,,0.00,WUHU216HW,2013-02-26 09:05:00,
2013-02-26 03:10:00,40.7,32.1,29.60,WNW,293,19.5,20.1,71,0.00,,,0.00,WUHU216HW,2013-02-26 09:10:00,
2013-02-26 03:15:00,40.7,32.1,29.60,West,270,16.3,20.1,71,0.00,,,0.00,WUHU216HW,2013-02-26 09:15:00,
2013-02-26 03:20:00,40.7,32.3,29.60,WNW,293,13.4,20.1,72,0.00,,,0.00,WUHU216HW,2013-02-26 09:20:00,
2013-02-26 03:25:00,40.7,32.3,29.60,West,270,14.3,17.7,72,0.00,,,0.00,WUHU216HW,2013-02-26 09:25:00,
2013-02-26 03:30:00,40.5,32.1,29.60,WNW,293,11.4,17.7,72,0.00,,,0.00,WUHU216HW,2013-02-26 09:30:00,
2013-02-26 03:35:00,40.7,32.3,29.60,NW,315,16.6,24.4,72,0.00,,,0.00,WUHU216HW,2013-02-26 09:35:00,
2013-02-26 03:40:00,40.7,32.1,29.60,NW,315,16.6,24.4,71,0.00,,,0.00,WUHU216HW,2013-02-26 09:40:00,
2013-02-26 03:45:00,40.7,32.3,29.60,WNW,293,9.6,19.9,72,0.00,,,0.00,WUHU216HW,2013-02-26 09:45:00,
2013-02-26 03:50:00,40.5,32.1,29.60,West,270,17.9,20.8,72,0.00,,,0.00,WUHU216HW,2013-02-26 09:50:00,
2013-02-26 03:55:00,40.5,31.9,29.60,WNW,293,17.7,20.8,71,0.00,,,0.00,WUHU216HW,2013-02-26 09:55:00,
2013-02-26 04:00:00,40.7,32.1,29.60,WNW,293,14.1,22.4,71,0.00,,,0.00,WUHU216HW,2013-02-26 10:00:00,
2013-02-26 04:05:00,40.7,32.1,29.60,WNW,293,13.4,22.4,71,0.00,,,0.00,WUHU216HW,2013-02-26 10:05:00,
2013-02-26 04:10:00,40.7,32.1,29.60,West,270,24.4,24.4,71,0.00,,,0.00,WUHU216HW,2013-02-26 10:10:00,
2013-02-26 04:15:00,40.7,31.7,29.61,NW,315,19.2,24.4,70,0.00,,,0.00,WUHU216HW,2013-02-26 10:15:00,
2013-02-26 04:20:00,40.7,31.7,29.60,WNW,293,20.8,24.8,70,0.00,,,0.00,WUHU216HW,2013-02-26 10:20:00,
2013-02-26 04:25:00,40.7,31.7,29.61,WNW,293,15.0,24.8,70,0.00,,,0.00,WUHU216HW,2013-02-26 10:25:00,
2013-02-26 04:30:00,40.7,31.7,29.62,WNW,293,19.0,23.0,70,0.00,,,0.00,WUHU216HW,2013-02-26 10:30:00,
2013-02-26 04:35:00,40.7,31.7,29.62,NW,315,6.9,20.8,70,0.00,,,0.00,WUHU216HW,2013-02-26 10:35:00,
2013-02-26 04:40:00,40.9,31.9,29.62,West,270,14.1,21.3,70,0.00,,,0.00,WUHU216HW,2013-02-26 10:40:00,
2013-02-26 04:45:00,40.9,31.9,29.63,West,270,12.1,21.3,70,0.00,,,0.00,WUHU216HW,2013-02-26 10:45:00,
2013-02-26 04:50:00,40.7,31.7,29.63,West,270,15.2,21.0,70,0.00,,,0.00,WUHU216HW,2013-02-26 10:50:00,
2013-02-26 04:55:00,40.7,31.7,29.63,NW,315,17.0,20.1,70,0.00,,,0.00,WUHU216HW,2013-02-26 10:55:00,
2013-02-26 05:00:00,40.9,31.9,29.63,WNW,293,13.9,22.4,70,0.00,,,0.00,WUHU216HW,2013-02-26 11:00:00,
2013-02-26 05:05:00,40.7,31.7,29.63,WNW,293,17.2,22.4,70,0.00,,,0.00,WUHU216HW,2013-02-26 11:05:00,
2013-02-26 05:10:00,40.7,31.7,29.63,NW,315,15.0,20.8,70,0.00,,,0.00,WUHU216HW,2013-02-26 11:10:00,
2013-02-26 05:15:00,40.7,32.1,29.63,NW,315,17.7,20.1,71,0.00,,,0.00,WUHU216HW,2013-02-26 11:15:00,
2013-02-26 05:20:00,40.7,32.1,29.63,West,270,11.0,20.1,71,0.00,,,0.00,WUHU216HW,2013-02-26 11:20:00,
2013-02-26 05:25:00,40.7,32.1,29.64,NW,315,10.5,20.1,71,0.00,,,0.00,WUHU216HW,2013-02-26 11:25:00,
2013-02-26 05:30:00,40.7,32.1,29.64,NW,315,13.2,20.8,71,0.00,,,0.00,WUHU216HW,2013-02-26 11:30:00,
2013-02-26 05:35:00,40.7,32.1,29.64,NNW,338,17.2,23.7,71,0.00,,,0.00,WUHU216HW,2013-02-26 11:35:00,
2013-02-26 05:40:00,40.7,32.1,29.64,WNW,293,12.5,23.7,71,0.00,,,0.00,WUHU216HW,2013-02-26 11:40:00,
2013-02-26 05:45:00,40.7,32.1,29.64,West,270,16.8,20.1,71,0.00,,,0.00,WUHU216HW,2013-02-26 11:45:00,
2013-02-26 05:50:00,40.7,32.1,29.65,WNW,293,14.3,22.6,71,0.00,,,0.00,WUHU216HW,2013-02-26 11:50:00,
2013-02-26 05:55:00,40.7,32.1,29.65,West,270,13.9,22.6,71,0.00,,,0.00,WUHU216HW,2013-02-26 11:55:00,
2013-02-26 06:00:00,40.7,32.1,29.65,West,270,22.4,22.4,71,0.00,,,0.00,WUHU216HW,2013-02-26 12:00:00,
2013-02-26 06:05:00,40.7,32.1,29.65,NW,315,13.9,22.4,71,0.00,,,0.00,WUHU216HW,2013-02-26 12:05:00,
2013-02-26 06:10:00,40.7,32.1,29.65,West,270,17.2,22.4,71,0.00,,,0.00,WUHU216HW,2013-02-26 12:10:00,
2013-02-26 06:15:00,40.7,32.1,29.66,NW,315,14.3,20.8,71,0.00,,,0.00,WUHU216HW,2013-02-26 12:15:00,
2013-02-26 06:20:00,40.7,32.1,29.66,WNW,293,20.6,21.0,71,0.00,,,0.00,WUHU216HW,2013-02-26 12:20:00,
2013-02-26 06:25:00,40.7,32.1,29.67,West,270,12.3,21.0,71,0.00,,,0.00,WUHU216HW,2013-02-26 12:25:00,
2013-02-26 06:30:00,40.7,32.1,29.67,NW,315,15.7,20.8,71,0.00,,,0.00,WUHU216HW,2013-02-26 12:30:00,
2013-02-26 06:35:00,40.7,32.1,29.67,West,270,13.9,20.8,71,0.00,,,0.00,WUHU216HW,2013-02-26 12:35:00,
2013-02-26 06:40:00,40.5,31.9,29.67,West,270,15.4,19.5,71,0.00,,,0.00,WUHU216HW,2013-02-26 12:40:00,
2013-02-26 06:45:00,40.3,32.0,29.68,West,270,12.1,15.9,72,0.00,,,0.00,WUHU216HW,2013-02-26 12:45:00,
2013-02-26 06:50:00,40.5,32.1,29.68,NW,315,17.4,18.6,72,0.00,,,0.00,WUHU216HW,2013-02-26 12:50:00,
2013-02-26 06:55:00,40.7,32.3,29.68,WNW,293,9.6,18.8,72,0.00,,,0.00,WUHU216HW,2013-02-26 12:55:00,
2013-02-26 07:00:00,40.7,32.3,29.68,WNW,293,13.0,18.8,72,0.00,,,0.00,WUHU216HW,2013-02-26 13:00:00,
2013-02-26 07:05:00,40.7,32.3,29.68,West,270,15.7,18.6,72,0.00,,,0.00,WUHU216HW,2013-02-26 13:05:00,
2013-02-26 07:10:00,40.5,32.1,29.69,WNW,293,14.8,18.6,72,0.00,,,0.00,WUHU216HW,2013-02-26 13:10:00,
2013-02-26 07:15:00,40.5,32.1,29.70,West,270,12.1,19.2,72,0.00,,,0.00,WUHU216HW,2013-02-26 13:15:00,
2013-02-26 07:20:00,40.5,32.1,29.69,WNW,293,17.7,20.4,72,0.00,,,0.00,WUHU216HW,2013-02-26 13:20:00,
2013-02-26 07:25:00,40.5,32.1,29.69,West,270,11.4,20.4,72,0.00,,,0.00,WUHU216HW,2013-02-26 13:25:00,
2013-02-26 07:30:00,40.5,32.1,29.70,WNW,293,15.4,17.7,72,0.00,,,0.00,WUHU216HW,2013-02-26 13:30:00,
2013-02-26 07:35:00,40.7,32.3,29.70,NW,315,11.4,18.8,72,0.00,,,0.00,WUHU216HW,2013-02-26 13:35:00,
2013-02-26 07:40:00,40.7,32.3,29.70,West,270,14.3,18.8,72,0.00,,,0.00,WUHU216HW,2013-02-26 13:40:00,
2013-02-26 07:45:00,41.0,32.7,29.70,West,270,13.4,16.3,72,0.00,,,0.00,WUHU216HW,2013-02-26 13:45:00,
2013-02-26 07:50:00,41.4,33.0,29.71,WNW,293,15.7,17.2,72,0.00,,,0.00,WUHU216HW,2013-02-26 13:50:00,
2013-02-26 07:55:00,41.8,33.1,29.71,NW,315,13.0,17.2,71,0.00,,,0.00,WUHU216HW,2013-02-26 13:55:00,
2013-02-26 08:00:00,41.9,33.3,29.71,NW,315,12.3,17.2,71,0.00,,,0.00,WUHU216HW,2013-02-26 14:00:00,
2013-02-26 08:05:00,41.8,33.1,29.71,WNW,293,12.8,17.9,71,0.00,,,0.00,WUHU216HW,2013-02-26 14:05:00,
2013-02-26 08:10:00,41.6,33.0,29.72,West,270,14.3,17.9,71,0.00,,,0.00,WUHU216HW,2013-02-26 14:10:00,
2013-02-26 08:15:00,41.8,33.1,29.72,WNW,293,14.8,19.7,71,0.00,,,0.00,WUHU216HW,2013-02-26 14:15:00,
2013-02-26 08:20:00,41.6,33.0,29.72,WNW,293,9.2,20.6,71,0.00,,,0.00,WUHU216HW,2013-02-26 14:20:00,
2013-02-26 08:25:00,41.8,33.1,29.72,NW,315,10.3,20.6,71,0.00,,,0.00,WUHU216HW,2013-02-26 14:25:00,
2013-02-26 08:30:00,41.9,33.3,29.72,NW,315,9.2,17.0,71,0.00,,,0.00,WUHU216HW,2013-02-26 14:30:00,
2013-02-26 08:35:00,42.1,33.5,29.73,WNW,293,8.1,17.0,71,0.00,,,0.00,WUHU216HW,2013-02-26 14:35:00,
2013-02-26 08:40:00,42.1,33.5,29.73,WNW,293,11.2,16.1,71,0.00,,,0.00,WUHU216HW,2013-02-26 14:40:00,
2013-02-26 08:45:00,42.1,33.5,29.72,WNW,293,12.8,16.1,71,0.00,,,0.00,WUHU216HW,2013-02-26 14:45:00,
2013-02-26 08:50:00,42.1,33.5,29.72,NW,315,13.4,15.7,71,0.00,,,0.00,WUHU216HW,2013-02-26 14:50:00,
2013-02-26 08:55:00,42.3,33.7,29.73,West,270,10.5,18.8,71,0.00,,,0.00,WUHU216HW,2013-02-26 14:55:00,
2013-02-26 09:00:00,42.5,33.9,29.73,West,270,10.3,18.8,71,0.00,,,0.00,WUHU216HW,2013-02-26 15:00:00,
2013-02-26 09:05:00,42.7,34.0,29.73,WSW,248,12.1,15.9,71,0.00,,,0.00,WUHU216HW,2013-02-26 15:05:00,
2013-02-26 09:10:00,42.7,34.0,29.74,West,270,14.3,16.6,71,0.00,,,0.00,WUHU216HW,2013-02-26 15:10:00,
2013-02-26 09:15:00,42.5,33.9,29.74,West,270,9.6,16.8,71,0.00,,,0.00,WUHU216HW,2013-02-26 15:15:00,
2013-02-26 09:20:00,42.5,33.9,29.74,WNW,293,11.0,16.8,71,0.00,,,0.00,WUHU216HW,2013-02-26 15:20:00,
2013-02-26 09:25:00,42.3,33.7,29.75,WNW,293,12.8,15.7,71,0.00,,,0.00,WUHU216HW,2013-02-26 15:25:00,
2013-02-26 09:30:00,42.7,34.0,29.75,WNW,293,14.1,15.7,71,0.00,,,0.00,WUHU216HW,2013-02-26 15:30:00,
2013-02-26 09:35:00,42.8,34.2,29.75,WNW,293,12.5,16.3,71,0.00,,,0.00,WUHU216HW,2013-02-26 15:35:00,
2013-02-26 09:40:00,43.0,34.3,29.75,WSW,248,10.1,16.3,71,0.00,,,0.00,WUHU216HW,2013-02-26 15:40:00,
2013-02-26 09:45:00,43.4,34.7,29.75,NW,315,9.4,14.1,71,0.00,,,0.00,WUHU216HW,2013-02-26 15:45:00,
2013-02-26 09:50:00,43.4,34.7,29.75,West,270,10.1,16.3,71,0.00,,,0.00,WUHU216HW,2013-02-26 15:50:00,
2013-02-26 09:55:00,43.7,34.7,29.76,WNW,293,13.4,16.3,70,0.00,,,0.00,WUHU216HW,2013-02-26 15:55:00,
2013-02-26 10:00:00,43.7,34.7,29.76,West,270,8.3,16.3,70,0.00,,,0.00,WUHU216HW,2013-02-26 16:00:00,
2013-02-26 10:05:00,43.7,34.7,29.76,WNW,293,16.1,18.6,70,0.00,,,0.00,WUHU216HW,2013-02-26 16:05:00,
2013-02-26 10:10:00,43.9,34.5,29.75,NW,315,9.2,18.6,69,0.00,,,0.00,WUHU216HW,2013-02-26 16:10:00,
2013-02-26 10:15:00,44.3,34.7,29.76,WNW,293,13.9,18.3,69,0.00,,,0.00,WUHU216HW,2013-02-26 16:15:00,
2013-02-26 10:20:00,44.6,34.8,29.76,WNW,293,11.9,18.3,68,0.00,,,0.00,WUHU216HW,2013-02-26 16:20:00,
2013-02-26 10:25:00,44.6,34.8,29.76,West,270,14.5,15.2,68,0.00,,,0.00,WUHU216HW,2013-02-26 16:25:00,
2013-02-26 10:30:00,44.8,34.9,29.76,WNW,293,12.3,19.2,68,0.00,,,0.00,WUHU216HW,2013-02-26 16:30:00,
2013-02-26 10:35:00,45.7,36.2,29.77,WNW,293,6.7,19.2,69,0.00,,,0.00,WUHU216HW,2013-02-26 16:35:00,
2013-02-26 10:40:00,47.0,35.8,29.77,NW,315,16.6,16.6,65,0.00,,,0.00,WUHU216HW,2013-02-26 16:40:00,
2013-02-26 10:45:00,47.3,35.7,29.77,West,270,15.0,16.6,64,0.00,,,0.00,WUHU216HW,2013-02-26 16:45:00,
2013-02-26 10:50:00,48.2,36.3,29.77,NNW,338,13.9,16.6,63,0.00,,,0.00,WUHU216HW,2013-02-26 16:50:00,
2013-02-26 10:55:00,49.1,36.7,29.77,West,270,15.0,15.7,62,0.00,,,0.00,WUHU216HW,2013-02-26 16:55:00,
2013-02-26 11:00:00,48.8,36.4,29.78,NW,315,10.5,15.7,62,0.00,,,0.00,WUHU216HW,2013-02-26 17:00:00,
2013-02-26 11:05:00,49.0,36.6,29.78,West,270,10.5,14.3,62,0.00,,,0.00,WUHU216HW,2013-02-26 17:05:00,
2013-02-26 11:10:00,49.3,36.5,29.78,WNW,293,15.7,15.7,61,0.00,,,0.00,WUHU216HW,2013-02-26 17:10:00,
2013-02-26 11:15:00,49.7,37.2,29.78,WNW,293,13.4,15.7,62,0.00,,,0.00,WUHU216HW,2013-02-26 17:15:00,
2013-02-26 11:20:00,50.0,36.7,29.78,West,270,13.6,13.9,60,0.00,,,0.00,WUHU216HW,2013-02-26 17:20:00,
2013-02-26 11:25:00,50.4,36.2,29.78,NW,315,17.9,17.9,58,0.00,,,0.00,WUHU216HW,2013-02-26 17:25:00,
2013-02-26 11:30:00,51.1,36.8,29.78,NW,315,9.8,17.9,58,0.00,,,0.00,WUHU216HW,2013-02-26 17:30:00,
2013-02-26 11:35:00,50.6,35.8,29.79,WNW,293,10.3,17.9,57,0.00,,,0.00,WUHU216HW,2013-02-26 17:35:00,
2013-02-26 11:40:00,51.1,36.8,29.78,WNW,293,9.2,14.8,58,0.00,,,0.00,WUHU216HW,2013-02-26 17:40:00,
2013-02-26 11:45:00,51.7,36.4,29.78,WNW,293,13.2,13.6,56,0.00,,,0.00,WUHU216HW,2013-02-26 17:45:00,
2013-02-26 11:50:00,52.9,37.1,29.78,NW,315,13.4,17.2,55,0.00,,,0.00,WUHU216HW,2013-02-26 17:50:00,
2013-02-26 11:55:00,52.9,36.2,29.78,West,270,11.2,17.2,53,0.00,,,0.00,WUHU216HW,2013-02-26 17:55:00,
2013-02-26 12:00:00,52.4,36.6,29.78,WNW,293,9.2,15.4,55,0.00,,,0.00,WUHU216HW,2013-02-26 18:00:00,
2013-02-26 12:05:00,52.2,35.6,29.78,NNW,338,13.4,15.7,53,0.00,,,0.00,WUHU216HW,2013-02-26 18:05:00,
2013-02-26 12:10:00,52.7,36.9,29.78,West,270,10.3,15.7,55,0.00,,,0.00,WUHU216HW,2013-02-26 18:10:00,
2013-02-26 12:15:00,52.7,36.5,29.78,WNW,293,13.4,15.7,54,0.00,,,0.00,WUHU216HW,2013-02-26 18:15:00,
2013-02-26 12:20:00,53.3,37.4,29.78,WNW,293,11.6,15.7,55,0.00,,,0.00,WUHU216HW,2013-02-26 18:20:00,
2013-02-26 12:25:00,53.6,37.4,29.78,NW,315,11.4,15.7,54,0.00,,,0.00,WUHU216HW,2013-02-26 18:25:00,
2013-02-26 12:30:00,53.8,36.1,29.78,WNW,293,11.6,17.0,51,0.00,,,0.00,WUHU216HW,2013-02-26 18:30:00,
2013-02-26 12:35:00,54.0,37.2,29.78,NW,315,13.0,17.0,53,0.00,,,0.00,WUHU216HW,2013-02-26 18:35:00,
2013-02-26 12:40:00,54.7,37.8,29.78,NW,315,11.6,15.2,53,0.00,,,0.00,WUHU216HW,2013-02-26 18:40:00,
2013-02-26 12:45:00,54.7,36.9,29.78,West,270,13.4,15.0,51,0.00,,,0.00,WUHU216HW,2013-02-26 18:45:00,
2013-02-26 12:50:00,54.7,36.5,29.78,WNW,293,13.4,17.9,50,0.00,,,0.00,WUHU216HW,2013-02-26 18:50:00,
2013-02-26 12:55:00,55.3,37.4,29.78,NW,315,8.7,17.9,51,0.00,,,0.00,WUHU216HW,2013-02-26 18:55:00,
2013-02-26 13:00:00,55.8,37.9,29.77,NW,315,12.3,16.1,51,0.00,,,0.00,WUHU216HW,2013-02-26 19:00:00,
2013-02-26 13:05:00,55.8,37.4,29.78,West,270,7.4,16.1,50,0.00,,,0.00,WUHU216HW,2013-02-26 19:05:00,
2013-02-26 13:10:00,56.0,37.6,29.77,West,270,9.8,14.8,50,0.00,,,0.00,WUHU216HW,2013-02-26 19:10:00,
2013-02-26 13:15:00,56.7,37.8,29.77,West,270,11.0,16.8,49,0.00,,,0.00,WUHU216HW,2013-02-26 19:15:00,
2013-02-26 13:20:00,57.1,37.5,29.76,West,270,7.6,16.8,48,0.00,,,0.00,WUHU216HW,2013-02-26 19:20:00,
2013-02-26 13:25:00,56.9,36.8,29.76,NW,315,9.4,13.6,47,0.00,,,0.00,WUHU216HW,2013-02-26 19:25:00,
2013-02-26 13:30:00,56.9,36.3,29.76,NW,315,11.2,13.6,46,0.00,,,0.00,WUHU216HW,2013-02-26 19:30:00,
2013-02-26 13:35:00,57.1,37.5,29.76,WNW,293,6.3,14.3,48,0.00,,,0.00,WUHU216HW,2013-02-26 19:35:00,
2013-02-26 13:40:00,57.6,38.1,29.76,West,270,8.1,14.3,48,0.00,,,0.00,WUHU216HW,2013-02-26 19:40:00,
2013-02-26 13:45:00,58.1,36.8,29.76,West,270,8.3,15.0,45,0.00,,,0.00,WUHU216HW,2013-02-26 19:45:00,
2013-02-26 13:50:00,58.1,36.8,29.76,WNW,293,9.6,15.0,45,0.00,,,0.00,WUHU216HW,2013-02-26 19:50:00,
2013-02-26 13:55:00,58.1,37.4,29.76,NW,315,6.7,15.0,46,0.00,,,0.00,WUHU216HW,2013-02-26 19:55:00,
2013-02-26 14:00:00,58.3,37.0,29.76,WNW,293,11.4,14.8,45,0.00,,,0.00,WUHU216HW,2013-02-26 20:00:00,
2013-02-26 14:05:00,58.1,36.8,29.75,WNW,293,6.7,14.8,45,0.00,,,0.00,WUHU216HW,2013-02-26 20:05:00,
2013-02-26 14:10:00,58.9,38.1,29.75,WNW,293,7.8,12.1,46,0.00,,,0.00,WUHU216HW,2013-02-26 20:10:00,
2013-02-26 14:15:00,59.4,38.0,29.75,WSW,248,15.7,15.7,45,0.00,,,0.00,WUHU216HW,2013-02-26 20:15:00,
2013-02-26 14:20:00,59.2,36.6,29.75,West,270,10.5,18.3,43,0.00,,,0.00,WUHU216HW,2013-02-26 20:20:00,
2013-02-26 14:25:00,58.9,36.9,29.75,WNW,293,10.3,18.3,44,0.00,,,0.00,WUHU216HW,2013-02-26 20:25:00,
2013-02-26 14:30:00,59.4,37.4,29.74,NW,315,12.8,15.7,44,0.00,,,0.00,WUHU216HW,2013-02-26 20:30:00,
2013-02-26 14:35:00,59.6,37.5,29.74,NW,315,8.3,15.7,44,0.00,,,0.00,WUHU216HW,2013-02-26 20:35:00,
2013-02-26 14:40:00,59.6,36.4,29.75,West,270,8.7,12.5,42,0.00,,,0.00,WUHU216HW,2013-02-26 20:40:00,
2013-02-26 14:45:00,59.8,37.1,29.75,NW,315,7.2,12.5,43,0.00,,,0.00,WUHU216HW,2013-02-26 20:45:00,
2013-02-26 14:50:00,59.8,37.1,29.75,NW,315,6.3,11.9,43,0.00,,,0.00,WUHU216HW,2013-02-26 20:50:00,
2013-02-26 14:55:00,59.8,36.0,29.74,West,270,9.2,13.6,41,0.00,,,0.00,WUHU216HW,2013-02-26 20:55:00,
2013-02-26 15:00:00,59.9,36.7,29.75,WNW,293,7.2,13.6,42,0.00,,,0.00,WUHU216HW,2013-02-26 21:00:00,
2013-02-26 15:05:00,60.1,36.9,29.75,WSW,248,5.6,12.1,42,0.00,,,0.00,WUHU216HW,2013-02-26 21:05:00,
2013-02-26 15:10:00,60.5,37.8,29.75,WSW,248,8.1,10.5,43,0.00,,,0.00,WUHU216HW,2013-02-26 21:10:00,
2013-02-26 15:15:00,60.8,38.1,29.74,WNW,293,6.3,10.5,43,0.00,,,0.00,WUHU216HW,2013-02-26 21:15:00,
2013-02-26 15:20:00,60.5,36.6,29.75,WNW,293,9.4,11.9,41,0.00,,,0.00,WUHU216HW,2013-02-26 21:20:00,
2013-02-26 15:25:00,60.1,36.9,29.75,NW,315,8.5,11.9,42,0.00,,,0.00,WUHU216HW,2013-02-26 21:25:00,
2013-02-26 15:30:00,60.3,36.5,29.75,West,270,5.6,12.1,41,0.00,,,0.00,WUHU216HW,2013-02-26 21:30:00,
2013-02-26 15:35:00,60.5,37.2,29.75,WNW,293,9.2,12.1,42,0.00,,,0.00,WUHU216HW,2013-02-26 21:35:00,
2013-02-26 15:40:00,60.5,36.6,29.75,West,270,7.2,12.8,41,0.00,,,0.00,WUHU216HW,2013-02-26 21:40:00,
2013-02-26 15:45:00,60.8,36.4,29.74,West,270,5.8,12.8,40,0.00,,,0.00,WUHU216HW,2013-02-26 21:45:00,
2013-02-26 15:50:00,60.5,36.0,29.75,West,270,8.9,12.1,40,0.00,,,0.00,WUHU216HW,2013-02-26 21:50:00,
2013-02-26 15:55:00,60.5,36.0,29.75,SSW,203,7.2,12.1,40,0.00,,,0.00,WUHU216HW,2013-02-26 21:55:00,
2013-02-26 16:00:00,60.5,36.0,29.75,West,270,7.2,11.2,40,0.00,,,0.00,WUHU216HW,2013-02-26 22:00:00,
2013-02-26 16:05:00,60.5,36.0,29.75,NNW,338,8.3,11.2,40,0.00,,,0.00,WUHU216HW,2013-02-26 22:05:00,
2013-02-26 16:10:00,60.3,35.9,29.75,West,270,9.4,11.4,40,0.00,,,0.00,WUHU216HW,2013-02-26 22:10:00,
2013-02-26 16:15:00,60.3,35.9,29.75,West,270,6.5,11.4,40,0.00,,,0.00,WUHU216HW,2013-02-26 22:15:00,
2013-02-26 16:20:00,60.5,36.0,29.75,WNW,293,11.4,13.0,40,0.00,,,0.00,WUHU216HW,2013-02-26 22:20:00,
2013-02-26 16:25:00,59.9,35.6,29.75,West,270,9.8,13.0,40,0.00,,,0.00,WUHU216HW,2013-02-26 22:25:00,
2013-02-26 16:30:00,59.8,35.4,29.75,West,270,11.2,11.9,40,0.00,,,0.00,WUHU216HW,2013-02-26 22:30:00,
2013-02-26 16:35:00,59.4,35.6,29.75,WNW,293,9.8,11.9,41,0.00,,,0.00,WUHU216HW,2013-02-26 22:35:00,
2013-02-26 16:40:00,59.4,35.1,29.75,West,270,9.8,13.6,40,0.00,,,0.00,WUHU216HW,2013-02-26 22:40:00,
2013-02-26 16:45:00,59.4,35.6,29.75,WNW,293,6.5,13.6,41,0.00,,,0.00,WUHU216HW,2013-02-26 22:45:00,
2013-02-26 16:50:00,59.0,35.3,29.75,WNW,293,9.8,12.1,41,0.00,,,0.00,WUHU216HW,2013-02-26 22:50:00,
2013-02-26 16:55:00,58.7,35.0,29.75,WNW,293,5.6,12.1,41,0.00,,,0.00,WUHU216HW,2013-02-26 22:55:00,
2013-02-26 17:00:00,58.9,35.2,29.75,WNW,293,10.3,10.3,41,0.00,,,0.00,WUHU216HW,2013-02-26 23:00:00,
2013-02-26 17:05:00,58.7,35.6,29.75,NW,315,6.9,10.3,42,0.00,,,0.00,WUHU216HW,2013-02-26 23:05:00,
2013-02-26 17:10:00,58.7,35.0,29.75,West,270,5.8,10.3,41,0.00,,,0.00,WUHU216HW,2013-02-26 23:10:00,
2013-02-26 17:15:00,58.3,35.3,29.75,WNW,293,6.7,10.1,42,0.00,,,0.00,WUHU216HW,2013-02-26 23:15:00,
2013-02-26 17:20:00,58.0,35.5,29.76,WNW,293,5.1,10.1,43,0.00,,,0.00,WUHU216HW,2013-02-26 23:20:00,
2013-02-26 17:25:00,57.6,34.6,29.75,WNW,293,8.3,9.8,42,0.00,,,0.00,WUHU216HW,2013-02-26 23:25:00,
2013-02-26 17:30:00,57.4,35.0,29.76,NW,315,5.6,9.8,43,0.00,,,0.00,WUHU216HW,2013-02-26 23:30:00,
2013-02-26 17:35:00,57.1,34.7,29.76,NW,315,6.0,8.5,43,0.00,,,0.00,WUHU216HW,2013-02-26 23:35:00,
2013-02-26 17:40:00,57.1,35.3,29.76,WNW,293,3.4,6.7,44,0.00,,,0.00,WUHU216HW,2013-02-26 23:40:00,
2013-02-26 17:45:00,56.7,34.9,29.76,West,270,3.4,6.5,44,0.00,,,0.00,WUHU216HW,2013-02-26 23:45:00,
2013-02-26 17:50:00,56.5,35.3,29.76,WNW,293,4.7,6.5,45,0.00,,,0.00,WUHU216HW,2013-02-26 23:50:00,
2013-02-26 17:55:00,56.3,35.1,29.76,West,270,4.3,5.4,45,0.00,,,0.00,WUHU216HW,2013-02-26 23:55:00,
2013-02-26 18:00:00,56.0,34.8,29.76,West,270,2.7,5.4,45,0.00,,,0.00,WUHU216HW,2013-02-27 00:00:00,
2013-02-26 18:05:00,56.0,34.8,29.76,West,270,2.9,4.3,45,0.00,,,0.00,WUHU216HW,2013-02-27 00:05:00,
2013-02-26 18:10:00,55.8,35.2,29.76,WNW,293,2.9,3.6,46,0.00,,,0.00,WUHU216HW,2013-02-27 00:10:00,
2013-02-26 18:15:00,55.6,35.0,29.76,West,270,1.8,3.4,46,0.00,,,0.00,WUHU216HW,2013-02-27 00:15:00,
2013-02-26 18:20:00,55.4,34.8,29.76,NW,315,1.1,3.4,46,0.00,,,0.00,WUHU216HW,2013-02-27 00:20:00,
2013-02-26 18:25:00,55.4,35.4,29.76,West,270,1.6,2.0,47,0.00,,,0.00,WUHU216HW,2013-02-27 00:25:00,
2013-02-26 18:30:00,55.6,35.6,29.76,West,270,1.1,2.0,47,0.00,,,0.00,WUHU216HW,2013-02-27 00:30:00,
2013-02-26 18:35:00,55.8,35.2,29.76,West,270,1.3,2.0,46,0.00,,,0.00,WUHU216HW,2013-02-27 00:35:00,
2013-02-26 18:40:00,55.8,35.2,29.76,NW,315,1.8,1.8,46,0.00,,,0.00,WUHU216HW,2013-02-27 00:40:00,
2013-02-26 18:45:00,55.3,34.7,29.76,WNW,293,1.1,2.2,46,0.00,,,0.00,WUHU216HW,2013-02-27 00:45:00,
2013-02-26 18:50:00,54.9,34.9,29.76,WNW,293,1.3,2.2,47,0.00,,,0.00,WUHU216HW,2013-02-27 00:50:00,
2013-02-26 18:55:00,54.5,34.6,29.77,NNW,338,0.0,2.2,47,0.00,,,0.00,WUHU216HW,2013-02-27 00:55:00,
2013-02-26 19:00:00,54.4,33.8,29.77,NNW,338,0.0,1.6,46,0.00,,,0.00,WUHU216HW,2013-02-27 01:00:00,
2013-02-26 19:05:00,54.2,34.3,29.77,NNW,338,0.4,0.7,47,0.00,,,0.00,WUHU216HW,2013-02-27 01:05:00,
2013-02-26 19:10:00,54.0,34.1,29.77,WSW,248,0.4,1.3,47,0.00,,,0.00,WUHU216HW,2013-02-27 01:10:00,
2013-02-26 19:15:00,53.6,33.8,29.77,West,270,0.4,1.3,47,0.00,,,0.00,WUHU216HW,2013-02-27 01:15:00,
2013-02-26 19:20:00,53.3,34.0,29.78,WNW,293,0.4,1.1,48,0.00,,,0.00,WUHU216HW,2013-02-27 01:20:00,
2013-02-26 19:25:00,52.9,33.7,29.78,ENE,68,0.7,1.1,48,0.00,,,0.00,WUHU216HW,2013-02-27 01:25:00,
2013-02-26 19:30:00,51.8,33.3,29.78,ENE,68,0.4,0.7,49,0.00,,,0.00,WUHU216HW,2013-02-27 01:30:00,
2013-02-26 19:35:00,50.8,32.9,29.78,ENE,68,1.1,1.1,50,0.00,,,0.00,WUHU216HW,2013-02-27 01:35:00,
2013-02-26 19:40:00,50.0,32.7,29.78,ENE,68,0.0,1.1,51,0.00,,,0.00,WUHU216HW,2013-02-27 01:40:00,
2013-02-26 19:45:00,50.0,33.1,29.78,ENE,68,0.0,1.1,52,0.00,,,0.00,WUHU216HW,2013-02-27 01:45:00,
2013-02-26 19:50:00,50.2,33.3,29.78,SSE,158,0.4,0.4,52,0.00,,,0.00,WUHU216HW,2013-02-27 01:50:00,
2013-02-26 19:55:00,50.4,33.0,29.78,SSE,158,0.7,0.9,51,0.00,,,0.00,WUHU216HW,2013-02-27 01:55:00,
2013-02-26 20:00:00,50.6,33.1,29.78,SSE,158,0.4,1.1,51,0.00,,,0.00,WUHU216HW,2013-02-27 02:00:00,
2013-02-26 20:05:00,50.6,33.1,29.79,SSE,158,0.0,1.1,51,0.00,,,0.00,WUHU216HW,2013-02-27 02:05:00,
2013-02-26 20:10:00,50.6,33.1,29.79,NNW,338,1.1,1.1,51,0.00,,,0.00,WUHU216HW,2013-02-27 02:10:00,
2013-02-26 20:15:00,50.4,33.0,29.79,NNW,338,1.1,1.1,51,0.00,,,0.00,WUHU216HW,2013-02-27 02:15:00,
2013-02-26 20:20:00,50.2,32.9,29.79,NNW,338,0.7,1.1,51,0.00,,,0.00,WUHU216HW,2013-02-27 02:20:00,
2013-02-26 20:26:00,50.0,33.1,29.79,NNW,338,0.4,1.1,52,0.00,,,0.00,WUHU216HW,2013-02-27 02:26:00,
2013-02-26 20:31:00,49.9,32.9,29.79,NW,315,1.1,1.1,52,0.00,,,0.00,WUHU216HW,2013-02-27 02:31:00,
2013-02-26 20:36:00,49.3,32.4,29.80,NW,315,0.4,1.1,52,0.00,,,0.00,WUHU216HW,2013-02-27 02:36:00,
2013-02-26 20:41:00,49.1,32.7,29.80,NW,315,0.0,1.1,53,0.00,,,0.00,WUHU216HW,2013-02-27 02:41:00,
2013-02-26 20:46:00,49.0,32.5,29.80,NW,315,0.0,0.7,53,0.00,,,0.00,WUHU216HW,2013-02-27 02:46:00,
2013-02-26 20:51:00,48.2,32.3,29.80,ENE,68,0.7,1.1,54,0.00,,,0.00,WUHU216HW,2013-02-27 02:51:00,
2013-02-26 20:56:00,47.2,31.8,29.81,ENE,68,0.4,1.1,55,0.00,,,0.00,WUHU216HW,2013-02-27 02:56:00,
2013-02-26 21:01:00,47.0,32.1,29.81,ENE,68,0.4,0.7,56,0.00,,,0.00,WUHU216HW,2013-02-27 03:01:00,
2013-02-26 21:06:00,47.2,32.2,29.81,NNE,23,1.1,1.1,56,0.00,,,0.00,WUHU216HW,2013-02-27 03:06:00,
2013-02-26 21:11:00,46.8,31.9,29.81,NNW,338,0.4,1.1,56,0.00,,,0.00,WUHU216HW,2013-02-27 03:11:00,
2013-02-26 21:16:00,47.0,32.5,29.82,North,0,0.2,1.1,57,0.00,,,0.00,WUHU216HW,2013-02-27 03:16:00,
2013-02-26 21:21:00,47.0,32.5,29.82,North,0,0.0,1.1,57,0.00,,,0.00,WUHU216HW,2013-02-27 03:21:00,
2013-02-26 21:26:00,47.2,32.7,29.82,North,0,0.0,0.4,57,0.00,,,0.00,WUHU216HW,2013-02-27 03:26:00,
2013-02-26 21:31:00,47.2,32.7,29.83,North,0,0.0,0.0,57,0.00,,,0.00,WUHU216HW,2013-02-27 03:31:00,
2013-02-26 21:36:00,47.0,32.5,29.83,North,0,0.0,0.0,57,0.00,,,0.00,WUHU216HW,2013-02-27 03:36:00,
2013-02-26 21:41:00,47.0,32.5,29.82,NNE,23,0.7,0.7,57,0.00,,,0.00,WUHU216HW,2013-02-27 03:41:00,
2013-02-26 21:46:00,46.8,32.3,29.83,NNE,23,0.4,0.9,57,0.00,,,0.00,WUHU216HW,2013-02-27 03:46:00,
2013-02-26 21:51:00,46.4,32.0,29.83,North,0,0.0,0.9,57,0.00,,,0.00,WUHU216HW,2013-02-27 03:51:00,
2013-02-26 21:56:00,46.1,31.6,29.83,North,0,0.4,0.4,57,0.00,,,0.00,WUHU216HW,2013-02-27 03:56:00,
2013-02-26 22:01:00,45.9,32.0,29.83,North,0,0.0,0.4,58,0.00,,,0.00,WUHU216HW,2013-02-27 04:01:00,
2013-02-26 22:06:00,45.7,31.8,29.83,North,0,0.0,0.2,58,0.00,,,0.00,WUHU216HW,2013-02-27 04:06:00,
2013-02-26 22:11:00,45.4,31.4,29.83,NNE,23,0.4,1.1,58,0.00,,,0.00,WUHU216HW,2013-02-27 04:11:00,
2013-02-26 22:16:00,45.0,31.6,29.83,North,0,0.9,1.1,59,0.00,,,0.00,WUHU216HW,2013-02-27 04:16:00,
2013-02-26 22:21:00,44.8,31.9,29.83,ENE,68,0.9,1.1,60,0.00,,,0.00,WUHU216HW,2013-02-27 04:21:00,
2013-02-26 22:26:00,44.5,31.5,29.83,ENE,68,0.4,1.1,60,0.00,,,0.00,WUHU216HW,2013-02-27 04:26:00,
2013-02-26 22:31:00,44.5,31.5,29.83,ENE,68,0.4,0.9,60,0.00,,,0.00,WUHU216HW,2013-02-27 04:31:00,
2013-02-26 22:36:00,44.5,31.5,29.83,ENE,68,0.0,0.7,60,0.00,,,0.00,WUHU216HW,2013-02-27 04:36:00,
2013-02-26 22:41:00,44.5,31.1,29.83,ENE,68,0.0,0.4,59,0.00,,,0.00,WUHU216HW,2013-02-27 04:41:00,
2013-02-26 22:46:00,44.5,31.1,29.83,ENE,68,0.0,0.0,59,0.00,,,0.00,WUHU216HW,2013-02-27 04:46:00,
2013-02-26 22:51:00,44.5,31.1,29.83,ENE,68,0.4,0.7,59,0.00,,,0.00,WUHU216HW,2013-02-27 04:51:00,
2013-02-26 22:56:00,44.3,30.9,29.83,ENE,68,0.4,0.9,59,0.00,,,0.00,WUHU216HW,2013-02-27 04:56:00,
2013-02-26 23:00:00,43.9,30.5,29.83,ENE,68,0.9,0.9,59,0.00,,,0.00,WUHU216HW,2013-02-27 05:00:00,
2013-02-26 23:05:00,43.7,30.3,29.84,ENE,68,0.7,0.9,59,0.00,,,0.00,WUHU216HW,2013-02-27 05:05:00,
2013-02-26 23:10:00,43.2,29.8,29.83,ENE,68,0.4,0.7,59,0.00,,,0.00,WUHU216HW,2013-02-27 05:10:00,
2013-02-26 23:15:00,42.8,29.4,29.83,ENE,68,1.3,1.3,59,0.00,,,0.00,WUHU216HW,2013-02-27 05:15:00,
2013-02-26 23:20:00,42.8,29.9,29.83,NNE,23,2.0,2.5,60,0.00,,,0.00,WUHU216HW,2013-02-27 05:20:00,
2013-02-26 23:25:00,42.8,30.2,29.83,NE,45,1.8,3.4,61,0.00,,,0.00,WUHU216HW,2013-02-27 05:25:00,
2013-02-26 23:30:00,43.0,30.4,29.83,NE,45,1.1,3.4,61,0.00,,,0.00,WUHU216HW,2013-02-27 05:30:00,
2013-02-26 23:35:00,42.1,29.6,29.82,NE,45,1.1,2.2,61,0.00,,,0.00,WUHU216HW,2013-02-27 05:35:00,
2013-02-26 23:40:00,41.2,29.2,29.82,NE,45,1.6,1.6,62,0.00,,,0.00,WUHU216HW,2013-02-27 05:40:00,
2013-02-26 23:45:00,41.0,29.4,29.82,NE,45,2.0,2.9,63,0.00,,,0.00,WUHU216HW,2013-02-27 05:45:00,
2013-02-26 23:50:00,41.4,29.7,29.82,NE,45,3.6,3.6,63,0.00,,,0.00,WUHU216HW,2013-02-27 05:50:00,
2013-02-26 23:55:00,41.9,30.3,29.82,NE,45,2.7,4.7,63,0.00,,,0.00,WUHU216HW,2013-02-27 05:55:00,